When you browse on this site, cookies collect data to enhance your experience and personalize the content and advertising you see.
Visit our Privacy Policy to learn more. By continuing to use the site, you agree to this use of cookies and data.
  • Em Portugal
  • Lista de países
  • Para 7 dias
  • Temperatura da água
  • Mapas de satélite
  • Mapa do tempo
  • Widgets de tempo
  • user-avatar
    Iniciar Sessão

    Previsão horária em Cochabamba

    Hoje, 19 Abril, Sexta-feira

    Tempo Temperatura Precipitação Vento Pressão Humidade
    00:00 +17°C° 0 mm 2 m/s 555 mmHg 75%
    01:00 +18°C° 0 mm 1 m/s 555 mmHg 75%
    02:00 +16°C° 0 mm 1 m/s 555 mmHg 75%
    03:00 +16°C° 0 mm 2 m/s 555 mmHg 76%
    04:00 +15°C° 0 mm 2 m/s 554 mmHg 76%
    05:00 +15°C° 0 mm 2 m/s 554 mmHg 76%
    06:00 +16°C° 0.1 mm 2 m/s 555 mmHg 71%
    07:00 +17°C° 0.1 mm 2 m/s 556 mmHg 65%
    08:00 +18°C° 0.1 mm 2 m/s 556 mmHg 60%
    09:00 +20°C° 0.1 mm 2 m/s 557 mmHg 53%
    10:00 +23°C° 0.1 mm 2 m/s 558 mmHg 46%
    11:00 +24°C° 0.1 mm 1 m/s 559 mmHg 40%
    12:00 +25°C° 0.1 mm 2 m/s 558 mmHg 40%
    13:00 +25°C° 0.1 mm 2 m/s 558 mmHg 40%
    14:00 +26°C° 0.1 mm 2 m/s 557 mmHg 41%
    15:00 +25°C° 0.3 mm 2 m/s 557 mmHg 43%
    16:00 +25°C° 0.3 mm 3 m/s 556 mmHg 44%
    17:00 +24°C° 0.3 mm 3 m/s 556 mmHg 46%
    18:00 +22°C° 0.3 mm 3 m/s 556 mmHg 54%
    19:00 +20°C° 0.3 mm 3 m/s 555 mmHg 61%
    20:00 +18°C° 0.3 mm 2 m/s 555 mmHg 69%
    21:00 +18°C° 0 mm 2 m/s 555 mmHg 71%
    22:00 +18°C° 0 mm 1 m/s 556 mmHg 73%
    23:00 +18°C° 0 mm 1 m/s 556 mmHg 76%

    Amanhã, 20 Abril, Sábado

    Tempo Temperatura Precipitação Vento Pressão Humidade
    00:00 +18°C° 0.1 mm 1 m/s 556 mmHg 75%
    01:00 +18°C° 0.1 mm 1 m/s 555 mmHg 73%
    02:00 +16°C° 0.1 mm 1 m/s 555 mmHg 72%
    03:00 +16°C° 0.2 mm 1 m/s 555 mmHg 73%
    04:00 +16°C° 0.2 mm 1 m/s 555 mmHg 74%
    05:00 +15°C° 0.2 mm 1 m/s 554 mmHg 75%
    06:00 +16°C° 0.2 mm 1 m/s 555 mmHg 71%
    07:00 +17°C° 0.2 mm 2 m/s 556 mmHg 67%
    08:00 +18°C° 0.2 mm 2 m/s 557 mmHg 62%
    09:00 +20°C° 0 mm 2 m/s 558 mmHg 55%
    10:00 +23°C° 0 mm 1 m/s 558 mmHg 47%
    11:00 +24°C° 0 mm 1 m/s 559 mmHg 40%
    12:00 +25°C° 0.2 mm 2 m/s 558 mmHg 40%
    13:00 +25°C° 0.2 mm 2 m/s 558 mmHg 41%
    14:00 +26°C° 0.2 mm 2 m/s 557 mmHg 41%
    15:00 +25°C° 0.9 mm 3 m/s 557 mmHg 43%
    16:00 +25°C° 0.9 mm 3 m/s 556 mmHg 45%
    17:00 +24°C° 0.9 mm 3 m/s 556 mmHg 47%
    18:00 +22°C° 0.5 mm 3 m/s 556 mmHg 55%
    19:00 +20°C° 0.5 mm 3 m/s 555 mmHg 63%
    20:00 +18°C° 0.5 mm 3 m/s 555 mmHg 71%
    21:00 +18°C° 0.2 mm 2 m/s 555 mmHg 73%
    22:00 +18°C° 0.2 mm 2 m/s 555 mmHg 75%
    23:00 +17°C° 0.2 mm 2 m/s 556 mmHg 77%

    Depois de amanhã, 21 Abril, Domingo

    Tempo Temperatura Precipitação Vento Pressão Humidade
    00:00 +17°C° 0.3 mm 2 m/s 555 mmHg 77%
    01:00 +17°C° 0.3 mm 2 m/s 555 mmHg 76%
    02:00 +17°C° 0.3 mm 2 m/s 555 mmHg 76%
    03:00 +17°C° 0.1 mm 2 m/s 554 mmHg 76%
    04:00 +16°C° 0.1 mm 2 m/s 554 mmHg 76%
    05:00 +16°C° 0.1 mm 2 m/s 554 mmHg 77%
    06:00 +17°C° 0.2 mm 2 m/s 555 mmHg 71%
    07:00 +18°C° 0.2 mm 2 m/s 555 mmHg 65%
    08:00 +18°C° 0.2 mm 2 m/s 556 mmHg 60%
    09:00 +20°C° 0.3 mm 2 m/s 557 mmHg 54%
    10:00 +23°C° 0.3 mm 2 m/s 558 mmHg 48%
    11:00 +24°C° 0.3 mm 2 m/s 558 mmHg 42%
    12:00 +25°C° 0.3 mm 2 m/s 558 mmHg 41%
    13:00 +25°C° 0.3 mm 3 m/s 557 mmHg 41%
    14:00 +26°C° 0.3 mm 3 m/s 556 mmHg 40%
    15:00 +25°C° 1 mm 3 m/s 556 mmHg 42%
    16:00 +25°C° 1 mm 3 m/s 555 mmHg 44%
    17:00 +24°C° 1 mm 3 m/s 555 mmHg 45%
    18:00 +21°C° 0.9 mm 3 m/s 554 mmHg 53%
    19:00 +19°C° 0.9 mm 3 m/s 554 mmHg 61%
    20:00 +18°C° 0.9 mm 3 m/s 554 mmHg 69%
    21:00 +17°C° 1 mm 2 m/s 554 mmHg 70%
    22:00 +17°C° 1 mm 2 m/s 554 mmHg 71%
    23:00 +18°C° 1 mm 1 m/s 554 mmHg 73%

    22 Abril, Segunda-feira

    Tempo Temperatura Precipitação Vento Pressão Humidade
    00:00 +16°C° 0.4 mm 1 m/s 554 mmHg 74%
    01:00 +15°C° 0.4 mm 1 m/s 553 mmHg 75%
    02:00 +15°C° 0.4 mm 1 m/s 553 mmHg 76%
    03:00 +14°C° 0 mm 1 m/s 552 mmHg 77%
    04:00 +14°C° 0 mm 1 m/s 552 mmHg 78%
    05:00 +13°C° 0 mm 1 m/s 552 mmHg 80%
    06:00 +15°C° 0 mm 1 m/s 553 mmHg 72%
    07:00 +15°C° 0 mm 0 m/s 554 mmHg 63%
    08:00 +17°C° 0 mm 0 m/s 556 mmHg 55%
    09:00 +20°C° 0 mm 1 m/s 556 mmHg 50%
    10:00 +22°C° 0 mm 1 m/s 557 mmHg 46%
    11:00 +23°C° 0 mm 1 m/s 557 mmHg 41%
    12:00 +24°C° 0.4 mm 1 m/s 557 mmHg 39%
    13:00 +25°C° 0.4 mm 1 m/s 556 mmHg 37%
    14:00 +25°C° 0.4 mm 1 m/s 556 mmHg 35%
    15:00 +25°C° 0.5 mm 2 m/s 556 mmHg 37%
    16:00 +24°C° 0.5 mm 2 m/s 555 mmHg 39%
    17:00 +24°C° 0.5 mm 3 m/s 555 mmHg 41%
    18:00 +21°C° 0.4 mm 2 m/s 555 mmHg 52%
    19:00 +19°C° 0.4 mm 2 m/s 555 mmHg 62%
    20:00 +18°C° 0.4 mm 1 m/s 555 mmHg 72%
    21:00 +18°C° 0.3 mm 1 m/s 555 mmHg 75%
    22:00 +18°C° 0.3 mm 1 m/s 555 mmHg 77%
    23:00 +16°C° 0.3 mm 1 m/s 556 mmHg 79%

    23 Abril, Terça-feira

    Tempo Temperatura Precipitação Vento Pressão Humidade
    00:00 +16°C° 0.9 mm 1 m/s 556 mmHg 80%
    01:00 +16°C° 0.9 mm 1 m/s 555 mmHg 81%
    02:00 +16°C° 0.9 mm 1 m/s 555 mmHg 83%
    03:00 +15°C° 1.9 mm 1 m/s 555 mmHg 82%
    04:00 +15°C° 1.9 mm 1 m/s 555 mmHg 82%
    05:00 +15°C° 1.9 mm 1 m/s 555 mmHg 81%
    06:00 +15°C° 1.8 mm 1 m/s 555 mmHg 80%
    07:00 +14°C° 1.8 mm 0 m/s 556 mmHg 78%
    08:00 +15°C° 1.8 mm 0 m/s 556 mmHg 77%
    09:00 +16°C° 1.5 mm 1 m/s 557 mmHg 74%
    10:00 +18°C° 1.5 mm 1 m/s 557 mmHg 72%
    11:00 +18°C° 1.5 mm 1 m/s 557 mmHg 69%
    12:00 +18°C° 1 mm 1 m/s 557 mmHg 67%
    13:00 +19°C° 1 mm 1 m/s 557 mmHg 65%
    14:00 +19°C° 1 mm 1 m/s 556 mmHg 63%
    15:00 +19°C° 0.2 mm 1 m/s 556 mmHg 62%
    16:00 +19°C° 0.2 mm 1 m/s 556 mmHg 61%
    17:00 +20°C° 0.2 mm 1 m/s 556 mmHg 60%
    18:00 +19°C° 0.1 mm 1 m/s 556 mmHg 64%
    19:00 +18°C° 0.1 mm 1 m/s 556 mmHg 68%
    20:00 +16°C° 0.1 mm 1 m/s 556 mmHg 72%
    21:00 +15°C° 0.2 mm 1 m/s 556 mmHg 75%
    22:00 +15°C° 0.2 mm 1 m/s 556 mmHg 77%
    23:00 +15°C° 0.2 mm 1 m/s 556 mmHg 79%

    24 Abril, Quarta-feira

    Tempo Temperatura Precipitação Vento Pressão Humidade
    00:00 +14°C° 0.2 mm 1 m/s 555 mmHg 79%
    01:00 +14°C° 0.2 mm 1 m/s 555 mmHg 79%
    02:00 +14°C° 0.2 mm 1 m/s 555 mmHg 79%
    03:00 +14°C° 0.1 mm 1 m/s 555 mmHg 80%
    04:00 +13°C° 0.1 mm 1 m/s 554 mmHg 80%
    05:00 +13°C° 0.1 mm 1 m/s 554 mmHg 80%
    06:00 +14°C° 0.1 mm 1 m/s 555 mmHg 77%
    07:00 +15°C° 0.1 mm 1 m/s 556 mmHg 73%
    08:00 +16°C° 0.1 mm 1 m/s 557 mmHg 69%
    09:00 +18°C° 0.2 mm 1 m/s 558 mmHg 65%
    10:00 +20°C° 0.2 mm 1 m/s 558 mmHg 62%
    11:00 +20°C° 0.2 mm 2 m/s 558 mmHg 58%
    12:00 +20°C° 0.3 mm 2 m/s 558 mmHg 58%
    13:00 +21°C° 0.3 mm 2 m/s 557 mmHg 57%
    14:00 +21°C° 0.3 mm 3 m/s 557 mmHg 56%
    15:00 +21°C° 0.4 mm 3 m/s 557 mmHg 57%
    16:00 +21°C° 0.4 mm 3 m/s 556 mmHg 58%
    17:00 +21°C° 0.4 mm 3 m/s 556 mmHg 59%
    18:00 +19°C° 0.2 mm 2 m/s 556 mmHg 64%
    19:00 +18°C° 0.2 mm 2 m/s 556 mmHg 70%
    20:00 +17°C° 0.2 mm 2 m/s 556 mmHg 75%
    21:00 +16°C° 0.2 mm 2 m/s 556 mmHg 76%
    22:00 +16°C° 0.2 mm 2 m/s 556 mmHg 78%
    23:00 +16°C° 0.2 mm 2 m/s 556 mmHg 79%
    Mostrar mais